Simultaneous Nadir Overpasses (SNOs) Predictions

Prediction of SNOs between METOP-B and NOAA-19 Satellite Orbit:

Table of predicted SNOs for the next 14.0 days since TLE Epoch: 2/4/2023
Index Date (METOP-B) Time (METOP-B) Lat,Lon (METOP-B) SZA (METOP-B ) Date (NOAA-19) Time (NOAA-19) Lat,Lon (NOAA-19) SZA (NOAA-19 ) Distance(km) Time Diff (sec)
1 02/07/2023 04:00:13 80.92, 154.77 97.56 02/07/2023 03:59:14 80.93, 154.95 97.56 3.25 59
2 02/07/2023 04:50:54 -80.92, -37.85 82.45 02/07/2023 04:50:12 -80.93, -37.87 82.46 0.50 42
3 02/07/2023 05:41:34 80.93, 129.66 97.57 02/07/2023 05:41:13 80.93, 129.63 97.55 0.86 21
4 02/07/2023 06:32:16 -80.92, -63.31 82.49 02/07/2023 06:32:11 -80.93, -63.20 82.47 2.33 5
5 02/07/2023 07:22:56 80.93, 104.19 97.53 02/07/2023 07:23:12 80.93, 104.30 97.54 1.92 16
6 02/07/2023 08:13:37 -80.93, -88.42 82.48 02/07/2023 08:14:10 -80.93, -88.53 82.48 1.83 33
7 02/07/2023 09:04:17 80.94, 79.09 97.53 02/07/2023 09:05:11 80.93, 78.98 97.53 2.22 54



Historial Predications of SNOs between METOP-B and NOAA-19
